Location: Arbon
(43.0005°N, 0.7472°E)
Time: 05:52:56
(UTC+00:00)

Vanguard 2 Rocket - Pass Details

Date: 23 June 2021
Orbit: 554 x 3325 km, 32.9° (Epoch: 26 July)

Event Time Altitude Azimuth Distance (km) Brightness Sun altitude
Rises 20:11:01 0° 258° (WSW) 7,267 12.1 -5.4°
Reaches altitude 10° 20:15:59 10° 255° (WSW) 6,284 11.7 -6.1°
Maximum altitude 20:35:25 60° 183° (S) 3,165 9.4 -8.7°
Drops below altitude 10° 20:48:56 10° 108° (ESE) 4,552 9.9 -10.5°
Enters shadow 20:50:22 - 107° (ESE) 4,874 10.1 -10.6°
